TimeEST,TemperatureF,Dew PointF,Humidity,Sea Level PressureIn,VisibilityMPH,Wind Direction,Wind SpeedMPH,Gust SpeedMPH,PrecipitationIn,Events,Conditions,WindDirDegrees,DateUTC
12:54 AM,28.9,25.0,85,30.16,10.0,Calm,Calm,-,N/A,,Overcast,0,2012-12-28 05:54:00
1:54 AM,28.9,25.0,85,30.15,10.0,Calm,Calm,-,N/A,,Overcast,0,2012-12-28 06:54:00
2:54 AM,28.9,25.0,85,30.14,10.0,ESE,4.6,-,N/A,,Overcast,120,2012-12-28 07:54:00
3:54 AM,28.9,25.0,85,30.13,10.0,SE,4.6,-,N/A,,Overcast,130,2012-12-28 08:54:00
4:54 AM,28.9,24.1,82,30.10,10.0,SE,8.1,-,N/A,,Overcast,140,2012-12-28 09:54:00
5:54 AM,28.9,24.1,82,30.10,10.0,SSE,4.6,-,N/A,,Overcast,160,2012-12-28 10:54:00
6:54 AM,28.9,25.0,85,30.11,9.0,SSE,3.5,-,N/A,,Overcast,150,2012-12-28 11:54:00
7:54 AM,28.9,25.0,85,30.12,9.0,SE,4.6,-,N/A,,Overcast,140,2012-12-28 12:54:00
8:54 AM,28.9,25.0,85,30.14,7.0,SSE,3.5,-,N/A,,Overcast,150,2012-12-28 13:54:00
9:54 AM,28.9,25.0,85,30.12,7.0,SE,8.1,-,N/A,,Overcast,140,2012-12-28 14:54:00
10:54 AM,30.0,25.0,82,30.11,9.0,SSE,6.9,-,N/A,,Overcast,160,2012-12-28 15:54:00
11:54 AM,30.0,25.0,82,30.09,10.0,SE,8.1,-,N/A,,Overcast,140,2012-12-28 16:54:00
12:54 PM,30.9,25.0,79,30.03,10.0,SSE,8.1,-,N/A,,Overcast,150,2012-12-28 17:54:00
1:54 PM,30.0,25.0,82,30.01,10.0,SSE,6.9,-,N/A,,Overcast,160,2012-12-28 18:54:00
2:54 PM,30.0,25.0,82,29.97,10.0,ESE,9.2,-,N/A,,Overcast,120,2012-12-28 19:54:00
3:54 PM,30.0,25.0,82,29.99,9.0,SE,5.8,-,N/A,,Overcast,140,2012-12-28 20:54:00
4:54 PM,30.0,25.0,82,29.98,9.0,SE,5.8,-,N/A,,Overcast,130,2012-12-28 21:54:00
5:54 PM,30.0,25.0,82,29.97,10.0,SE,4.6,-,N/A,,Overcast,130,2012-12-28 22:54:00
6:54 PM,30.0,25.0,82,29.96,10.0,ESE,3.5,-,N/A,,Overcast,120,2012-12-28 23:54:00
7:54 PM,30.0,25.0,82,29.94,10.0,East,3.5,-,N/A,,Overcast,100,2012-12-29 00:54:00
8:54 PM,30.0,26.1,85,29.93,9.0,NE,3.5,-,N/A,,Overcast,50,2012-12-29 01:54:00
9:32 PM,30.2,26.6,86,29.90,6.0,East,4.6,-,0.00,Snow,Light Snow,80,2012-12-29 02:32:00
9:54 PM,30.0,26.1,85,29.92,6.0,East,3.5,-,0.00,,Overcast,90,2012-12-29 02:54:00
10:26 PM,30.2,26.6,86,29.88,4.0,East,3.5,-,0.00,Snow,Light Snow,100,2012-12-29 03:26:00
10:45 PM,28.4,26.6,93,29.88,2.5,East,4.6,-,0.00,Snow,Light Snow,100,2012-12-29 03:45:00
10:54 PM,28.9,27.0,92,29.90,2.0,Calm,Calm,-,0.00,Snow,Light Snow,0,2012-12-29 03:54:00
11:02 PM,28.4,26.6,93,29.88,1.8,ESE,3.5,-,0.00,Snow,Light Snow,120,2012-12-29 04:02:00